North Adams, MA

5:45 PM EST on November 16, 2019 (GMT -0500)
Harriman And West

Weather History for KAQW - August, 2019

Change the Weather History Date:

Thursday, August 22, 2019

  Actual Average Record
Temperature  
Mean Temperature 72 °F -  
Max Temperature 81 °F 76 °F 87 °F (2003)
Min Temperature 64 °F 54 °F 48 °F (2004)
Cooling Degree Days 7    
Growing Degree Days 22 (Base 50)    
Moisture  
Dew Point 64 °F    
Average Humidity 87    
Maximum Humidity 100    
Minimum Humidity 56    
Precipitation  
Precipitation 0.00 in - - ()
Sea Level Pressure  
Sea Level Pressure 29.87 in    
Wind  
Wind Speed 2 mph ()    
Max Wind Speed 10 mph    
Max Gust Speed -    
Visibility 6.4 miles    
Events Fog    
Averages and records for this station are not official NWS values.
T = Trace of Precipitation, MM = Missing Value Source: Averaged Metar Reports

Daily Weather History Graph

Daily Weather History Graph

Search for Another Location

Airport or City:

Astronomy

Aug. 22, 2019 Rise Set
Actual Time 6:06 AM EDT 7:43 PM EDT
Civil Twilight 5:36 AM EDT 8:13 PM EDT
Nautical Twilight 5:00 AM EDT 8:49 PM EDT
Astronomical Twilight 4:21 AM EDT 9:28 PM EDT
Moon 11:23 PM EDT (8/22) 12:48 PM EDT (8/22)
Length of Visible Light 14h 37m
Length of Day
13h 37m
Waning Gibbous, 60% of the Moon is Illuminated
Aug 22
Waning Gibbous
Aug 23
Last Quarter
Aug 30
New
Sep 5
First Quarter
Sep 14
Full

Hourly Weather History & Observations

Time (EDT) Temp. Heat Index Dew Point Humidity Pressure Visibility Wind Dir Wind Speed Gust Speed Precip Events Conditions
12:05 AM 64.9 °F - 64.9 °F 100% 29.88 in 1.0 mi Calm Calm - N/A   Mist
12:19 AM 64.9 °F - 64.9 °F 100% 29.87 in 0.2 mi Calm Calm - N/A Fog Fog
12:38 AM 64.9 °F - 64.9 °F 100% 29.87 in 0.8 mi Calm Calm - N/A   Mist
12:41 AM 64.9 °F - 64.9 °F 100% 29.87 in 1.5 mi Calm Calm - N/A   Overcast
12:43 AM 64.9 °F - 64.9 °F 100% 29.88 in 3.0 mi Calm Calm - N/A   Overcast
12:52 AM 64.0 °F - 64.0 °F 100% 29.87 in 3.0 mi Calm Calm - N/A   Overcast
1:29 AM 64.9 °F - 64.9 °F 100% 29.86 in 1.8 mi Calm Calm - N/A   Overcast
1:40 AM 64.9 °F - 64.9 °F 100% 29.86 in 4.0 mi Calm Calm - N/A   Overcast
1:52 AM 64.9 °F - 64.9 °F 100% 29.86 in 2.5 mi Calm Calm - N/A   Overcast
1:55 AM 64.9 °F - 64.9 °F 100% 29.86 in 1.0 mi Calm Calm - N/A   Mist
2:03 AM 64.9 °F - 64.9 °F 100% 29.86 in 0.5 mi Calm Calm - N/A Fog Fog
2:11 AM 64.9 °F - 64.9 °F 100% 29.85 in 0.2 mi Calm Calm - N/A Fog Fog
2:52 AM 64.9 °F - 64.9 °F 100% 29.84 in 0.8 mi Calm Calm - N/A   Mist
3:10 AM 64.9 °F - 64.9 °F 100% 29.85 in 0.2 mi Calm Calm - N/A Fog Fog
3:42 AM 64.9 °F - 64.9 °F 100% 29.84 in 1.5 mi Calm Calm - N/A   Overcast
3:45 AM 64.9 °F - 64.9 °F 100% 29.84 in 4.0 mi Calm Calm - N/A   Overcast
3:52 AM 64.9 °F - 64.9 °F 100% 29.83 in 10.0 mi Calm Calm - N/A   Overcast
4:52 AM 66.0 °F - 66.0 °F 100% 29.82 in 9.0 mi Calm Calm - N/A   Overcast
5:52 AM 64.9 °F - 64.9 °F 100% 29.84 in 10.0 mi ESE 3.5 mph - N/A   Overcast
6:52 AM 66.0 °F - 66.0 °F 100% 29.86 in 6.0 mi ESE 5.8 mph - N/A   Overcast
7:52 AM 66.0 °F - 66.0 °F 100% 29.87 in 10.0 mi Calm Calm - N/A   Overcast
8:50 AM 68.0 °F - 66.2 °F 94% 29.88 in 10.0 mi Calm Calm - N/A   Overcast
8:52 AM 68.0 °F - 66.0 °F 93% 29.88 in 10.0 mi Calm Calm - N/A   Overcast
9:52 AM 70.0 °F - 68.0 °F 93% 29.88 in 10.0 mi Calm Calm - N/A   Mostly Cloudy
10:18 AM 72.0 °F - 69.1 °F 91% 29.89 in 10.0 mi Calm Calm - N/A   Mostly Cloudy
10:52 AM 78.1 °F - 70.0 °F 76% 29.88 in 10.0 mi Variable 4.6 mph - N/A   Mostly Cloudy
10:59 AM 75.9 °F - 69.1 °F 79% 29.89 in 10.0 mi Variable 6.9 mph - N/A   Mostly Cloudy
11:52 AM 77.0 °F - 66.9 °F 71% 29.88 in 10.0 mi Variable 4.6 mph - N/A   Mostly Cloudy
12:52 PM 78.1 °F - 66.9 °F 68% 29.87 in 10.0 mi Variable 4.6 mph - N/A   Overcast
1:52 PM 79.0 °F - 66.0 °F 64% 29.86 in 10.0 mi West 9.2 mph - N/A   Mostly Cloudy
2:52 PM 78.1 °F - 66.0 °F 66% 29.86 in 10.0 mi West 8.1 mph - N/A   Overcast
3:52 PM 80.1 °F 81.7 °F 64.0 °F 58% 29.86 in 10.0 mi Variable 6.9 mph - N/A   Partly Cloudy
5:52 PM 77.0 °F - 60.1 °F 56% 29.87 in 10.0 mi Variable 4.6 mph - N/A   Clear
6:52 PM 73.9 °F - 60.1 °F 62% 29.88 in 10.0 mi Variable 5.8 mph - N/A   Clear
7:52 PM 69.1 °F - 57.0 °F 65% 29.90 in 10.0 mi West 8.1 mph - N/A   Partly Cloudy
8:52 PM 66.9 °F - 57.0 °F 70% 29.92 in 10.0 mi West 6.9 mph - N/A   Partly Cloudy
9:52 PM 68.0 °F - 55.9 °F 65% 29.91 in 10.0 mi West 8.1 mph - N/A   Partly Cloudy
10:52 PM 66.0 °F - 55.0 °F 68% 29.92 in 10.0 mi West 9.2 mph - N/A   Clear
11:52 PM 64.9 °F - 54.0 °F 68% 29.94 in 10.0 mi West 10.4 mph - N/A   Clear